User: anonymous   Login
Location: Caltech
(34.1382°N, 118.1253°W)
Time: 06:53:37
(UTC-08:00)
Language:

Cosmos 2322 - Orbit

View from above orbital plane
View from above orbital plane
View from above satellite
View from above satellite

Ground track
Ground track

The orbit data is extracted from the following two-line orbital elements,

1 23704U 95058A   17347.23219403  .00000226  00000-0  14578-3 0  9997
2 23704  70.9839  28.5171 0010211 192.7402 167.3463 14.13382589141132
Epoch (UTC): 13 December 2017 05:34:21
Eccentricity: 0.0010211
inclination: 70.9839°
perigee height: 840 km
apogee height: 855 km
right ascension of ascending node: 28.5171°
argument of perigee: 192.7402°
revolutions per day: 14.13382589
mean anomaly at epoch: 167.3463°
orbit number at epoch: 14113

The dashed part of the orbit path shows where the satellite is in the earth's shadow,  

DLR